Preview of NWS' New Version of Forecast
This preview is not operational and should not be used for support decisions.

Regional Weather Roundup (RWR)

Issued by National Weather Service (NWS)

                            
000
ASUS43 KMKX 251021
RWRWI 

WISCONSIN REGIONAL WEATHER ROUNDUP
NATIONAL WEATHER SERVICE MILWAUKEE/SULLIVAN WI
500 AM CDT SUN AUG 25 2019

NOTE: "FAIR" INDICATES FEW OR NO CLOUDS BELOW 12,000 FEET WITH NO
SIGNIFICANT WEATHER AND/OR OBSTRUCTIONS TO VISIBILITY.

WIZ001-002-006>008-014>016-023>028-251100-
NORTHWEST WISCONSIN
  
CITY           SKY/WX    TMP DP  RH WIND       PRES   REMARKS
SUPERIOR ARPT  CLOUDY    55  54  97 CALM      30.09S                  
ASHLAND        CLOUDY    61  53  75 S7        30.14F                  
HAYWARD        CLOUDY    60  52  74 SE10G18   30.14F                  
SIREN          CLOUDY    61  55  79 SE7       30.10S                  
CUMBERLAND     CLOUDY    59  52  77 SE6       30.12F                  
RICE LAKE      CLOUDY    61  44  52 SE8       30.14F                  
CHETEK         CLOUDY    60  54  79 SE7       30.14F                  
LADYSMITH      MOCLDY    57  52  82 SE7       30.18F                  
EAU CLAIRE     MOCLDY    58  51  78 SE8       30.13F                  
MENOMONIE      CLOUDY    57  52  85 E6        30.12F                  
NEW RICHMOND   FAIR      60  53  76 SE7       30.10F                  
OSCEOLA        MOCLDY    62  55  77 SE8       30.12S                  
$$
 
WIZ003>005-009-010-017-018-251100-
NORTH CENTRAL WISCONSIN
  
CITY           SKY/WX    TMP DP  RH WIND       PRES   REMARKS
MANITOWISH WTR FAIR      51  51 100 CALM      30.20S                  
ARBOR VITAE    FAIR      53  50  90 CALM      30.20F                  
WOODRUFF       FAIR      53  50  90 CALM      30.20F                  
RHINELANDER    FOG       47  46  97 E3        30.21F VSB 3/4          
EAGLE RIVER    FAIR      49  49 100 CALM      30.21F FOG              
LAND O LAKES   FOG       42  42  99 CALM      30.23S VSB 1/2          
PHILLIPS       FAIR      52  52 100 SE3       30.18S                  
TOMAHAWK       FAIR      42  41  97 CALM      30.21S                  
MEDFORD        MOCLDY    48  48  99 E3        30.19S                  
MERRILL        MOCLDY    45  45 100 CALM      30.21S FOG              
$$
 
WIZ029-030-035-036-043>047-251100-
CENTRAL WISCONSIN
  
CITY           SKY/WX    TMP DP  RH WIND       PRES   REMARKS
WAUSAU         MOCLDY    51  51 100 E6        30.19S                  
MOSINEE        CLOUDY    50  50 100 E5        30.20S                  
MARSHFIELD     MOCLDY    51  49  92 NE5       30.18S                  
STEVENS POINT  CLOUDY    51  51 100 CALM      30.20S                  
WAUPACA        FAIR      52  51  97 N3        30.19F                  
WAUTOMA        CLOUDY    51  49  92 CALM      30.19S                  
WISC RAPIDS    CLOUDY    55  52  89 E6        30.19S                  
CAMP DOUGLAS   FOG       46  46 100 CALM      30.16F VSB 1            
$$
 
WIZ011>013-019>022-031-037>040-048>050-251100-
NORTHEAST WISCONSIN
  
CITY           SKY/WX    TMP DP  RH WIND       PRES   REMARKS
ANTIGO         CLOUDY    47  47 100 CALM      30.22S                  
SHAWANO        FAIR      54  53  95 CALM      30.20S                  
OCONTO         FAIR      47  47  97 CALM      30.20F                  
STURGEON BAY   FAIR      60  57  89 SE5       30.22S                  
GREEN BAY      FAIR      51  50  96 N3        30.20S                  
MANITOWOC      FAIR      64  60  87 SE8       30.20S                  
APPLETON       FAIR      54  50  87 NE3       30.18S                  
CLINTONVILLE   MOCLDY    49  48  96 CALM      30.20S                  
OSHKOSH        MOCLDY    57  55  93 CALM      30.18S                  
$$
 
WIZ032>034-041-042-053>061-251100-
SOUTHWEST WISCONSIN
  
CITY           SKY/WX    TMP DP  RH WIND       PRES   REMARKS
LA CROSSE      CLOUDY    62  52  69 E7        30.13F                  
SPARTA         MOCLDY    49  48  97 CALM      30.16F                  
VIROQUA        FAIR      53  53 100 E7        30.15S                  
BOSCOBEL       FAIR      55  52  89 CALM      30.14F                  
PRAIRIE DU CHI CLOUDY    57  52  82 E3        30.12F                  
PLATTEVILLE    FAIR      55  55 100 E8        30.14S                  
$$

WIZ056-057-062-063-064-067-068-251100-
SOUTH CENTRAL WISCONSIN
  
CITY           SKY/WX    TMP DP  RH WIND       PRES   REMARKS
REEDSBURG      FAIR      52  52 100 CALM      30.16S                  
BARABOO/DELLS  FAIR      53  51  93 CALM      30.17S                  
LONE ROCK      FAIR      53  52  96 CALM      30.15F                  
MINERAL POINT  FAIR      57  57 100 E5        30.15S                  
MADISON        FAIR      55  53  93 NE3       30.16S                  
MIDDLETON      FAIR      54  51  90 CALM      30.17S                  
WATERTOWN      FAIR      52  52 100 E3        30.16S                  
MONROE         CLOUDY    56  54  94 E3        30.15S                  
JANESVILLE     FAIR      52  52 100 CALM      30.15S FOG              
$$
 
WIZ051-052-058>065-066-070>072-251100-
SOUTHEAST WISCONSIN
  
CITY           SKY/WX    TMP DP  RH WIND       PRES   REMARKS
MILWAUKEE      FAIR      65  54  67 S8        30.17S                  
WAUKESHA       FAIR      54  52  94 CALM      30.19R                  
MILWAUKEE/TIMM FAIR      63  52  67 SE3       30.19R                  
RACINE         FAIR      67  54  63 SE8       30.18S                  
KENOSHA        FAIR      64  55  72 SE6       30.17S                  
FOND DU LAC    MOCLDY    52  49  89 CALM      30.18S                  
SHEBOYGAN      FAIR      63  57  81 SE5       30.18S                  
WEST BEND      CLOUDY    50  50 100 CALM      30.18S                  
JUNEAU         FAIR      54  53  97 CALM      30.18S                  
$$

LSZ147-162-251100-
LAKE SUPERIOR
  
STATION/POSITION TIME  TEMP    WIND        PRES    WAVE
                       AIR SEA DIR/SP/G            HT/PER
                 (UTC) (F)     (DEG/KT/KT) (MB)    (FT/S)
W MID LAKE BUOY  0950   65 64  190/ 16/ 19 1020.1S   3/ 4
DEVILS ISLAND    1000   63     180/ 11/ 15 1020.2F
SAXON HARBOR     0940   63     160/  5/ 11 1020.3F
$$
 
LMZ867-665-643>646-251100-
LAKE MICHIGAN
  
STATION/POSITION TIME  TEMP    WIND        PRES    WAVE
                       AIR SEA DIR/SP/G            HT/PER
                 (UTC) (F)     (DEG/KT/KT) (MB)    (FT/S)
S GREEN BAY BUOY 1000   71 69  140/ 10/ 12 1022.8
N MID LAKE BUOY  1000   66 70  170/ 14/ 17 1023.7
NORTHPORT PIER   0940   65     140/  3/  6 1023.0R
KEWAUNEE LAKESHO 0948   67     160/ 13/ 15 1022.1R
SHEBOYGAN LAKESH 1000   68     150/ 17/ 19 1022.1R
PORT WASHINGTON  0940   70     160/ 15/ 18 1022.7S
ATWATER BUOY     1000   69 68  150/ 14/ 17 1021.9    4/ 4
S MID LAKE BUOY  1000   67 72  130/ 16/ 19 1021.9
KENOSHA   LAKESH 1000   68     150/ 18/ 20 1021.0
$$

TC  - TEMPERATURE IN CELSIUS
VSB - VISIBILITY IN STATUTE MILES
WCI - WIND CHILL INDEX
HX  - HEAT INDEX